Date String (YYYY-MM-DD hh:mm:ss) UTC,Instrument flags,absolute air pressure of the measurement (hPa),sample flow rate (lpm),inlet stack bypass flow (lpm),air temperature of the measurement (°C),ambient temperature measured by the external sensor (°C),aerosol sample conditioner tube jacket temperature (°C),OPC LED temperature (°C),internal box temperature (°C),relative humidity of the measurement (%),span deviation,mass concentration of particles derived from Lorenz-Mie calculation of OPC scattering (μg/m³),mass concentration of particles derived from Lorenz-Mie calculation of OPC scattering (μg/m³),mass concentration of particles derived from Lorenz-Mie calculation of OPC scattering (μg/m³)
DateTimeUTC,F1_M11,P_M11,Q1_M11,Q2_M11,T1_M11,T2_M11,T3_M11,T4_M11,T5_M11,U1_M11,ZSPAN_M11,X0_M11,X2_M11,X1_M11
2023-12-27 20:00:00,SystemResetWarning,0830.8,5.00,000.00,021.7,021.2,000.0,029.8,023.2,10.0,0000.0,0001.77,0000.96,0000.61
2023-12-27 20:01:00,SystemResetWarning,0830.7,4.99,000.00,021.7,021.2,000.0,029.8,023.2,9.9,0000.0,0001.72,0000.95,0000.62
2023-12-27 20:02:00,SystemResetWarning,0830.7,5.01,000.00,021.7,021.2,000.0,029.8,023.2,10.0,0000.0,0001.81,0000.99,0000.64
2023-12-27 20:03:00,SystemResetWarning,0830.7,5.01,000.00,021.7,021.2,000.0,029.9,023.3,10.2,0000.0,0002.65,0001.03,0000.65
2023-12-27 20:04:00,SystemResetWarning,0830.7,5.00,000.00,021.7,021.3,000.0,029.9,023.3,10.1,0000.0,0002.93,0001.03,0000.64
2023-12-27 20:05:00,SystemResetWarning,0830.7,5.00,000.00,021.8,021.3,000.0,029.9,023.3,10.0,0000.0,0002.90,0001.02,0000.63
2023-12-27 20:06:00,SystemResetWarning,0830.7,5.00,000.00,021.8,021.3,000.0,029.9,023.3,10.0,0000.0,0002.85,0000.99,0000.62
2023-12-27 20:07:00,SystemResetWarning,0830.7,5.00,000.00,021.8,021.3,000.0,029.9,023.3,10.1,0000.0,0003.58,0000.97,0000.60
2023-12-27 20:08:00,SystemResetWarning,0830.7,4.99,000.00,021.8,021.4,000.0,030.0,023.3,9.7,0000.0,0003.86,0000.96,0000.58
2023-12-27 20:09:00,SystemResetWarning,0830.7,4.99,000.00,021.9,021.4,000.0,030.0,023.4,9.7,0000.0,0003.81,0000.94,0000.58
2023-12-27 20:10:00,SystemResetWarning,0830.7,5.00,000.00,021.9,021.4,000.0,030.0,023.4,9.7,0000.0,0003.90,0000.96,0000.57
2023-12-27 20:11:00,SystemResetWarning,0830.7,5.00,000.00,021.9,021.4,000.0,030.0,023.4,9.6,0000.0,0003.76,0000.89,0000.56
2023-12-27 20:12:00,SystemResetWarning,0830.7,5.01,000.00,021.9,021.4,000.0,030.0,023.4,9.7,0000.0,0003.85,0000.89,0000.56
2023-12-27 20:13:00,SystemResetWarning,0830.7,5.00,000.00,022.0,021.5,000.0,030.1,023.5,9.6,0000.0,0003.81,0000.87,0000.54
2023-12-27 20:14:00,SystemResetWarning,0830.7,5.00,000.00,022.0,021.5,000.0,030.1,023.5,9.6,0000.0,0003.20,0000.86,0000.52
2023-12-27 20:15:00,SystemResetWarning,0830.6,5.00,000.00,022.0,021.5,000.0,030.1,023.5,9.6,0000.0,0002.89,0000.85,0000.53
2023-12-27 20:16:00,SystemResetWarning,0830.7,5.00,000.00,022.0,021.5,000.0,030.1,023.6,9.5,0000.0,0003.39,0000.87,0000.53
2023-12-27 20:17:00,SystemResetWarning,0830.7,5.00,000.00,022.0,021.6,000.0,030.1,023.6,9.6,0000.0,0003.39,0000.88,0000.53
2023-12-27 20:18:00,SystemResetWarning,0830.7,4.98,000.00,022.1,021.6,000.0,030.2,023.6,9.7,0000.0,0003.06,0000.87,0000.53
2023-12-27 20:19:00,SystemResetWarning,0830.7,5.00,000.00,022.1,021.6,000.0,030.2,023.6,9.7,0000.0,0002.27,0000.83,0000.53
2023-12-27 20:20:00,SystemResetWarning,0830.7,5.01,000.00,022.1,021.6,000.0,030.2,023.7,9.5,0000.0,0002.29,0000.84,0000.52
2023-12-27 20:21:00,SystemResetWarning,0830.7,5.01,000.00,022.1,021.7,000.0,030.2,023.7,9.4,0000.0,0002.11,0000.80,0000.51
2023-12-27 20:22:00,SystemResetWarning,0830.7,5.00,000.00,022.2,021.7,000.0,030.2,023.7,9.4,0000.0,0002.09,0000.80,0000.51
2023-12-27 20:23:00,SystemResetWarning,0830.7,5.00,000.00,022.2,021.7,000.0,030.3,023.8,9.3,0000.0,0002.02,0000.78,0000.50
2023-12-27 20:24:00,SystemResetWarning,0830.7,5.00,000.00,022.2,021.7,000.0,030.3,023.8,9.2,0000.0,0001.95,0000.76,0000.49
2023-12-27 20:25:00,SystemResetWarning,0830.7,5.00,000.00,022.2,021.8,000.0,030.3,023.8,9.3,0000.0,0002.09,0000.73,0000.49
2023-12-27 20:26:00,SystemResetWarning,0830.7,5.00,000.00,022.3,021.8,000.0,030.3,023.8,9.3,0000.0,0002.11,0000.71,0000.48
2023-12-27 20:27:00,SystemResetWarning,0830.7,5.00,000.00,022.3,021.8,000.0,030.4,023.9,9.1,0000.0,0001.51,0000.70,0000.48
2023-12-27 20:28:00,SystemResetWarning,0830.7,5.00,000.00,022.3,021.8,000.0,030.4,023.9,9.1,0000.0,0001.53,0000.70,0000.48
2023-12-27 20:29:00,SystemResetWarning,0830.7,5.00,000.00,022.3,021.9,000.0,030.4,023.9,9.1,0000.0,0001.70,0000.73,0000.48
2023-12-27 20:30:00,SystemResetWarning,0830.7,5.00,000.00,022.4,021.9,000.0,030.4,024.0,9.0,0000.0,0001.74,0000.75,0000.49
2023-12-27 20:31:00,SystemResetWarning,0830.7,5.00,000.00,022.4,021.9,000.0,030.5,024.0,9.0,0000.0,0001.75,0000.75,0000.48
2023-12-27 20:32:00,SystemResetWarning,0830.7,5.00,000.00,022.4,021.9,000.0,030.5,024.0,8.8,0000.0,0001.84,0000.77,0000.48
2023-12-27 20:33:00,SystemResetWarning,0830.7,5.01,000.00,022.4,022.0,000.0,030.5,024.0,8.6,0000.0,0002.57,0000.80,0000.48
2023-12-27 20:34:00,SystemResetWarning,0830.7,5.00,000.00,022.5,022.0,000.0,030.5,024.0,8.4,0000.0,0002.89,0000.81,0000.49
2023-12-27 20:35:00,SystemResetWarning,0830.7,5.00,000.00,022.5,022.0,000.0,030.6,024.0,8.3,0000.0,0003.09,0000.86,0000.49
2023-12-27 20:36:00,SystemResetWarning,0830.7,5.00,000.00,022.5,022.0,000.0,030.6,024.0,8.4,0000.0,0003.04,0000.90,0000.49
2023-12-27 20:37:00,SystemResetWarning,0830.7,5.00,000.00,022.5,022.0,000.0,030.6,024.0,8.5,0000.0,0002.85,0000.89,0000.48
2023-12-27 20:38:00,SystemResetWarning,0830.7,5.00,000.00,022.5,022.1,000.0,030.6,024.0,8.6,0000.0,0002.79,0000.85,0000.46
2023-12-27 20:39:00,SystemResetWarning,0830.7,5.00,000.00,022.6,022.1,000.0,030.6,024.0,8.7,0000.0,0002.75,0000.83,0000.46
2023-12-27 20:40:00,SystemResetWarning,0830.7,4.99,000.00,022.6,022.1,000.0,030.7,024.1,8.6,0000.0,0002.49,0000.78,0000.46
2023-12-27 20:41:00,SystemResetWarning,0830.7,5.00,000.00,022.6,022.1,000.0,030.7,024.1,8.6,0000.0,0002.37,0000.75,0000.45
2023-12-27 20:42:00,SystemResetWarning,0830.7,5.01,000.00,022.6,022.1,000.0,030.7,024.1,8.4,0000.0,0002.30,0000.72,0000.44
2023-12-27 20:43:00,SystemResetWarning,0830.7,5.01,000.00,022.6,022.2,000.0,030.7,024.1,8.2,0000.0,0002.25,0000.69,0000.43
2023-12-27 20:44:00,SystemResetWarning,0830.7,5.00,000.00,022.7,022.2,000.0,030.7,024.1,8.1,0000.0,0001.61,0000.64,0000.42
2023-12-27 20:45:00,SystemResetWarning,0830.7,4.99,000.00,022.7,022.2,000.0,030.8,024.1,8.2,0000.0,0001.48,0000.60,0000.40
2023-12-27 20:46:00,SystemResetWarning,0830.7,5.00,000.00,022.7,022.2,000.0,030.8,024.1,8.1,0000.0,0001.99,0000.56,0000.39
2023-12-27 20:47:00,SystemResetWarning,0830.7,5.00,000.00,022.7,022.2,000.0,030.8,024.1,7.9,0000.0,0001.85,0000.51,0000.38
2023-12-27 20:48:00,SystemResetWarning,0830.7,5.00,000.00,022.7,022.2,000.0,030.8,024.1,7.8,0000.0,0001.84,0000.49,0000.38
2023-12-27 20:49:00,SystemResetWarning,0830.7,5.01,000.00,022.7,022.2,000.0,030.8,024.2,8.0,0000.0,0001.93,0000.52,0000.38
2023-12-27 20:50:00,SystemResetWarning,0830.7,5.00,000.00,022.8,022.2,000.0,030.8,024.2,8.0,0000.0,0002.00,0000.54,0000.37
2023-12-27 20:51:00,SystemResetWarning,0830.7,5.00,000.00,022.8,022.3,000.0,030.9,024.2,7.8,0000.0,0001.99,0000.54,0000.37
2023-12-27 20:52:00,SystemResetWarning,0830.7,4.99,000.00,022.8,022.3,000.0,030.9,024.2,7.9,0000.0,0002.04,0000.55,0000.36
2023-12-27 20:53:00,SystemResetWarning,0830.7,5.00,000.00,022.8,022.3,000.0,030.9,024.2,7.8,0000.0,0002.09,0000.56,0000.36
2023-12-27 20:54:00,SystemResetWarning,0830.7,4.99,000.00,022.8,022.3,000.0,030.9,024.2,7.9,0000.0,0002.11,0000.56,0000.35
2023-12-27 20:55:00,SystemResetWarning,0830.7,5.00,000.00,022.8,022.3,000.0,030.9,024.3,7.8,0000.0,0002.13,0000.55,0000.34
2023-12-27 20:56:00,SystemResetWarning,0830.7,5.00,000.00,022.8,022.3,000.0,030.9,024.3,7.8,0000.0,0002.40,0000.54,0000.34
2023-12-27 20:57:00,SystemResetWarning,0830.7,5.00,000.00,022.9,022.3,000.0,031.0,024.3,7.7,0000.0,0001.37,0000.52,0000.33
2023-12-27 20:58:00,SystemResetWarning,0830.7,5.00,000.00,022.9,022.4,000.0,031.0,024.3,7.7,0000.0,0001.37,0000.52,0000.32
2023-12-27 20:59:00,SystemResetWarning,0830.7,5.00,000.00,022.9,022.4,000.0,031.0,024.3,7.7,0000.0,0001.75,0000.52,0000.31
